Location: Noulens
(43.8099°N, 0.1664°E)
Time: 00:27:20
(UTC+00:00)

Daily predictions for brighter satellites

Satellite Brightness Start Highest point End
(mag) Time Altitude Azimuth Time Altitude Azimuth Time Altitude Azimuth
STARLINK-1240 3.8 00:00:27 10° WNW 00:03:59 63° WNW 00:03:59 63° WNW
Cosmos 1763 Rocket 3.3 00:05:57 63° SSE 00:06:35 71° ESE 00:11:38 10° NNE
Cosmos 2227 Rocket 2.1 00:03:21 10° NNW 00:09:01 74° WSW 00:10:10 56° S
STARLINK-1216 4.0 00:05:27 10° WNW 00:08:47 55° WNW 00:08:47 55° WNW
Landsat 4 3.9 00:06:01 10° N 00:09:24 68° NNW 00:09:24 68° NNW
SL-14 R/B 4.5 00:11:48 31° WNW 00:11:51 31° WNW 00:15:19 10° NNW
Cosmos 1356 Rocket 3.6 00:09:48 10° NNW 00:13:55 60° W 00:13:55 60° W
STARLINK-1237 4.2 00:10:26 10° WNW 00:13:34 48° WNW 00:13:34 48° WNW
Cosmos 1758 Rocket 4.3 00:15:28 40° ESE 00:15:46 41° E 00:19:55 10° NNE
SL-16 R/B 4.5 00:11:36 10° ESE 00:16:12 23° ENE 00:20:49 10° N
STARLINK-1283 4.3 00:20:03 44° E 00:20:03 44° E 00:23:08 10° ENE
STARLINK-1202 4.4 00:15:26 10° WNW 00:18:21 42° W 00:18:21 42° W
Nadezhda 1 Rocket 4.0 00:17:19 10° N 00:23:34 76° W 00:25:28 47° SSW
CZ-4 R/B 3.6 00:19:33 10° NNE 00:24:17 79° ESE 00:24:50 68° SSE
SL-16 R/B 4.3 00:22:44 12° ESE 00:24:22 14° E 00:27:02 10° ENE
Cosmos 2208 Rocket 4.3 00:23:37 47° SE 00:24:29 52° ESE 00:29:40 10° NNE
Cosmos 1300 4.2 00:21:24 10° NNW 00:24:09 26° WNW 00:24:09 26° WNW
Cosmos 2285 Rocket 4.1 00:22:42 10° NNW 00:29:04 71° ENE 00:31:55 34° SE
USA 81 4.2 00:30:17 50° SSE 00:31:29 67° E 00:36:43 10° N
CZ-2D R/B 3.9 00:29:32 10° NE 00:33:08 19° E 00:35:02 16° ESE
Cosmos-2242 3.6 00:29:35 10° N 00:33:43 47° ENE 00:34:24 43° ESE
Meteor 2-10 Rocket 3.3 00:29:06 10° N 00:34:15 85° E 00:35:16 58° SSE
USA 215 3.3 00:28:07 11° SE 00:34:31 83° NE 00:41:06 10° NW
Cosmos 1626 Rocket 4.2 00:34:39 42° W 00:35:02 43° WNW 00:39:13 10° N
STARLINK-42 4.4 00:36:26 34° NE 00:36:26 34° NE 00:38:24 10° NE
BREEZE-M R/B 4.2 00:28:30 10° W 00:35:27 49° NNW 00:38:59 10° ENE
Meteor 1-21 Rocket 4.2 00:34:27 52° S 00:35:56 89° W 00:41:46 10° N
STARLINK-41 4.4 00:40:10 33° NE 00:40:10 33° NE 00:42:03 10° NE
STARLINK-1272 4.0 00:42:02 47° ENE 00:42:02 47° ENE 00:44:39 10° ENE
Cosmos 540 Rocket 3.4 00:41:07 57° S 00:42:04 73° ESE 00:47:11 10° NNE
SeaSat 1 4.5 00:40:16 10° N 00:43:59 22° NW 00:47:21 11° W
STARLINK-1307 3.6 00:46:48 63° ENE 00:46:48 63° ENE 00:49:58 10° NE
STARLINK-1290 3.5 00:50:11 69° NE 00:50:11 69° NE 00:53:30 10° NE
Helios 1B rocket 2.6 00:45:59 10° N 00:50:03 59° WNW 00:50:24 57° W
Cosmos 1980 Rocket 2.1 00:51:50 50° SSW 00:53:21 81° ESE 00:59:02 10° NNE
STARLINK-1317 3.4 00:56:33 74° WNW 00:56:44 76° NW 01:00:39 10° NE
Uosat 12 SS-18 rocket 3.9 00:53:28 10° NW 00:57:46 68° WSW 00:58:02 66° SSW
Meteor 1-29 3.3 00:55:15 10° N 00:58:11 60° NNW 00:58:11 60° NNW
Cosmos 1328 3.6 00:59:36 82° SSW 00:59:45 88° W 01:03:46 10° N
Cosmos 1455 2.6 00:56:46 10° NNW 01:00:05 50° WNW 01:00:05 50° WNW
STARLINK-55 4.1 01:00:33 38° NW 01:00:44 38° NNW 01:03:46 10° NE
STARLINK-1274 3.4 01:00:56 69° NNW 01:00:56 69° NNW 01:04:20 10° NE
Cosmos 1812 Rocket 4.5 01:00:05 10° NNW 01:04:04 33° W 01:04:13 33° W
Cosmos 2369 4.2 01:02:04 32° WSW 01:04:17 50° WNW 01:09:49 10° NNE
STARLINK-1291 3.5 01:04:15 65° WNW 01:04:29 68° NNW 01:08:12 10° NE
Meteor 1-11 4.4 01:03:54 40° SSE 01:05:51 64° E 01:11:23 10° NNE
Cosmos 1703 3.2 01:05:53 66° W 01:06:02 66° W 01:09:57 10° N
Cosmos 1937 Rocket 3.9 01:01:28 10° NNW 01:06:28 45° WSW 01:07:10 42° SW
STARLINK-1264 3.5 01:07:26 60° WNW 01:07:48 64° NNW 01:11:31 10° NE
Lacrosse 4 Rocket 2.7 01:04:29 10° NW 01:07:20 27° W 01:07:20 27° W
Cosmos 1825 Rocket 3.6 01:08:39 57° WSW 01:09:13 63° W 01:13:33 10° N
Cosmos 2263 Rocket 2.9 01:05:39 10° NNW 01:11:08 51° ENE 01:15:58 13° SE
ADEOS II 4.3 01:07:55 10° NE 01:11:09 16° E 01:14:22 10° SE
STARLINK-1267 3.7 01:10:40 54° WNW 01:11:10 61° NNW 01:14:53 10° NE
NOSS 2-1 (C) 4.3 01:12:05 29° ESE 01:12:05 29° ESE 01:14:43 10° ENE
Timation 1 Rocket 4.3 01:06:42 10° NNW 01:12:42 82° ENE 01:16:19 25° SSE
STARLINK-64 3.6 01:14:12 54° E 01:14:12 54° E 01:17:15 10° ENE
SL-4 R/B 3.1 01:09:03 10° NW 01:13:49 53° NNE 01:18:26 10° E
Cosmos 2297 Rocket 3.8 01:10:55 10° WNW 01:14:40 18° W 01:14:46 18° W
STARLINK-1287 4.3 01:16:13 38° SE 01:16:13 38° SE 01:19:52 10° ENE
USA 229 DEB 4.4 01:09:12 10° NNW 01:16:25 61° NE 01:23:57 10° SE
USA 229 4.4 01:09:19 10° NNW 01:16:31 61° NE 01:24:02 10° SE
NOSS 2-1 (D) 4.0 01:16:50 33° ESE 01:16:50 33° ESE 01:19:42 10° NE
NOSS 3-1 (C) 4.4 01:09:50 10° NNW 01:17:20 68° NE 01:25:56 10° SE
STARLINK-1207 3.9 01:17:09 44° WNW 01:17:56 54° NNW 01:21:39 10° NE
Cosmos 372 Rocket 3.9 01:13:55 10° NNW 01:19:05 77° WSW 01:20:47 43° S
Cosmos 2184 Rocket 4.2 01:16:26 32° SSE 01:19:21 64° E 01:25:27 10° NNE
NPP 4.4 01:15:20 10° NNE 01:20:27 43° E 01:22:54 27° SSE
CZ-4C R/B 3.6 01:16:43 14° W 01:20:31 32° NW 01:25:57 10° NNE
STARLINK-1266 4.0 01:20:25 40° WNW 01:21:22 52° NNW 01:25:02 10° NE
BREEZE-M DEB (TANK) 3.7 01:23:14 25° NE 01:23:14 25° NE 01:24:24 10° ENE
STARLINK-1299 3.8 01:24:06 53° SSE 01:24:24 55° SE 01:28:34 10° ENE
STARLINK-1284 4.1 01:23:41 36° WNW 01:24:46 49° NNW 01:28:26 10° NE
STARLINK-1302 4.0 01:25:46 46° SE 01:25:54 47° SE 01:29:54 10° ENE
BREEZE-M DEB (TANK) 3.5 01:24:40 10° WNW 01:26:57 23° N 01:28:55 10° NE
Alouette 2 Rocket 4.2 01:23:59 10° NNW 01:28:01 34° W 01:28:04 34° W
STARLINK-1258 4.2 01:26:59 33° WNW 01:28:13 47° NNW 01:31:51 10° NE
Spot 1 4.5 01:27:45 45° SSW 01:29:03 61° WSW 01:34:07 10° NNW
STARLINK-1273 3.8 01:30:32 50° SSE 01:30:51 51° SE 01:34:52 10° ENE
STARLINK-1292 4.3 01:30:17 30° W 01:31:40 44° NNW 01:35:17 10° NE
Cosmos 2150 Rocket 3.8 01:26:32 10° NNW 01:31:43 80° WSW 01:33:54 35° S
Cosmos 2322 Rocket 3.0 01:29:42 27° SSE 01:32:10 41° ESE 01:37:23 10° NE
STARLINK-1288 3.7 01:35:19 52° S 01:35:48 56° SE 01:39:52 10° ENE
STARLINK-61 4.0 01:35:51 40° SE 01:35:58 40° SE 01:39:40 10° ENE
STARLINK-1268 4.5 01:36:29 25° WNW 01:37:26 31° NNW 01:40:14 10° NE
STARLINK-1289 4.5 01:36:52 25° W 01:38:33 41° NNW 01:42:08 10° NE
Cosmos 1697 Rocket 4.2 01:36:19 16° W 01:39:41 27° NW 01:44:29 10° N
Cosmos 2181 Rocket 4.4 01:33:54 10° NNW 01:40:06 51° W 01:42:49 32° SSW
STARLINK-1308 3.7 01:40:08 52° S 01:40:49 62° SE 01:44:55 10° ENE
DELTA 2 DEB (DPAF) 4.2 01:40:14 45° SSW 01:41:18 58° W 01:45:43 10° NNW
Resurs 1-4 Rocket 2.1 01:37:08 10° NNE 01:42:28 79° ESE 01:44:54 34° S
Cosmos 1400 Rocket 3.2 01:40:09 10° NNW 01:44:10 48° W 01:44:46 44° SW
STARLINK-58 4.2 01:44:00 29° WNW 01:44:57 36° NNW 01:47:57 10° NE
Cosmos 1125 Rocket 3.5 01:40:08 10° NNW 01:45:22 84° ENE 01:48:54 21° SSE
Meteor 2-17 Rocket 4.5 01:42:53 29° S 01:46:14 78° E 01:52:22 10° N
STARLINK-1304 3.5 01:49:41 48° SSW 01:50:44 73° SE 01:54:53 10° ENE
Cosmos 2154 Rocket 4.1 01:49:52 25° S 01:53:39 75° E 01:59:52 10° N
STARLINK-48 4.0 01:53:48 30° W 01:55:29 55° NNW 01:59:19 10° NE
STARLINK-1278 3.6 01:55:21 39° SW 01:56:54 88° NNW 02:01:11 10° NE
GEOS 3 Rocket 4.1 01:51:55 10° SE 01:57:01 63° NE 02:02:16 10° NNW
Cosmos 1825 4.5 01:55:38 10° SE 01:58:18 19° E 02:00:59 10° NE
Meteor 1-27 4.2 01:52:55 10° NNW 01:58:25 63° W 02:01:18 29° SSW
Cosmos 2298 Rocket 4.5 01:53:30 10° NNW 01:58:30 43° WSW 02:00:18 32° SSW
STARLINK-1280 3.6 01:57:08 37° WSW 01:58:44 86° NW 02:03:02 10° NE
SL-16 R/B 2.5 01:55:29 25° S 01:59:15 68° WSW 02:05:25 10° NNW
Cosmos 2227 4.3 01:53:36 10° NNW 01:59:16 59° WSW 02:02:39 24° S
Cosmos 836 Rocket 4.5 01:56:55 33° SSW 01:59:23 86° WNW 02:04:45 10° NNE
Cosmos 1241 Rocket 4.4 01:57:57 29° SW 02:01:19 80° NW 02:07:35 10° NNE
Iridium 2 3.5 01:58:05 10° N 02:01:53 83° W 02:03:12 39° S
STARLINK-45 4.4 02:02:35 27° SSE 02:03:05 28° SE 02:06:15 10° ENE
Meteor 2-2 Rocket 4.4 01:57:51 10° N 02:03:55 86° ENE 02:08:42 17° S
Cosmos 1844 Rocket 4.4 02:00:28 10° N 02:05:29 32° NE 02:10:27 10° ESE
NOSS 2-1 (E) 2.9 02:04:58 45° SW 02:05:52 74° NW 02:09:29 10° NE
STARLINK-70 4.4 02:05:59 28° SSE 02:06:38 30° SE 02:09:53 10° ENE
STARLINK-1286 3.6 02:05:37 34° WSW 02:07:24 83° NNW 02:11:35 10° NE
SL-16 R/B 2.2 02:04:36 29° SSW 02:07:37 86° WNW 02:13:20 10° NNE
STARLINK-23 4.4 02:07:11 27° SSE 02:07:50 29° SE 02:11:00 10° ENE
CRYOSAT 2 4.3 02:03:56 10° N 02:08:51 82° W 02:11:30 27° SSW
MOZ.5/SAFIR/RUBIN 5/SL-8 4.4 02:07:55 31° SW 02:09:15 37° W 02:13:34 10° NNW
STARLINK-32 4.4 02:08:37 27° SSE 02:09:16 29° SE 02:12:26 10° ENE
STARLINK-1281 3.6 02:08:48 32° WSW 02:10:38 82° NW 02:14:47 10° NE
STARLINK-40 4.4 02:10:18 28° SSE 02:11:03 31° SE 02:14:17 10° ENE
IRIDIUM 104 4.5 02:07:38 20° S 02:11:13 73° E 02:16:26 10° N
STARLINK-44 4.3 02:11:49 28° SSE 02:12:37 32° SE 02:15:53 10° ENE
CZ-2D R/B 2.3 02:08:28 10° N 02:13:35 57° WNW 02:16:21 26° SW
Cosmos 2221 2.5 02:09:48 10° NNW 02:14:08 64° W 02:16:17 28° SSW
STARLINK-37 4.2 02:13:33 30° SSE 02:14:26 35° SE 02:17:46 10° ENE
CZ-4C R/B 4.3 02:14:17 30° SW 02:15:32 36° W 02:19:38 10° NNW
STARLINK-1310 3.7 02:13:35 29° WSW 02:15:37 76° NNW 02:19:46 10° NE
STARLINK-60 2.8 02:12:33 10° WNW 02:15:43 67° SW 02:18:53 10° SE
STARLINK-36 4.3 02:14:56 29° SSE 02:15:51 34° SE 02:19:10 10° ENE
USA 215 4.0 02:15:22 22° SSW 02:17:58 29° SW 02:23:32 10° WNW
GP-B 4.3 02:15:07 10° NNW 02:18:54 28° W 02:20:25 22° WSW
STARLINK-63 4.0 02:18:10 30° S 02:19:12 38° SE 02:22:35 10° ENE
Nadezhda 3 Rocket 4.0 02:13:15 10° NNW 02:19:34 74° W 02:24:39 17° S
Cosmos 1315 Rocket 3.0 02:15:59 10° NNW 02:19:49 52° W 02:21:25 31° SSW
IRIDIUM 114 4.3 02:16:46 21° S 02:20:21 87° E 02:25:36 10° N
STARLINK-35 4.1 02:19:32 30° S 02:20:34 37° SE 02:23:53 10° ENE
STARLINK-1319 3.8 02:18:21 26° WSW 02:20:35 70° NNW 02:24:44 10° NE
Cosmos 1842 Rocket 4.0 02:17:06 10° NNW 02:21:21 44° W 02:23:13 28° SW
STARLINK-51 4.0 02:21:14 30° S 02:22:21 39° SE 02:25:45 10° ENE
CBERS-1 4.0 02:18:04 10° NNE 02:23:14 89° ESE 02:26:39 22° SSW
STARLINK-30 4.0 02:22:49 30° S 02:24:02 40° SE 02:27:27 10° ENE
STARLINK-72 3.9 02:24:13 30° S 02:25:25 41° SE 02:28:48 10° ENE
STARLINK-1277 3.9 02:23:08 23° WSW 02:25:34 65° NNW 02:29:42 10° NE
Shenzhou-11 Module 1.2 02:26:47 68° SSW 02:26:54 70° S 02:29:20 10° E
STARLINK-59 3.7 02:27:25 30° SSW 02:28:45 46° SE 02:32:11 10° ENE
Cosmos 2058 3.0 02:27:00 27° SSW 02:29:13 67° W 02:33:26 10° N
IRIDIUM 103 4.3 02:25:56 21° S 02:29:31 78° W 02:34:46 10° N
Cosmos 2360 Rocket 2.5 02:25:44 19° S 02:29:43 64° ESE 02:35:18 10° NNE
STARLINK-1010 4.5 02:28:17 24° S 02:30:16 38° SE 02:34:13 10° ENE
STARLINK-56 3.8 02:29:04 29° SSW 02:30:29 46° SE 02:34:00 10° ENE
STARLINK-1276 4.0 02:27:56 21° WSW 02:30:35 60° NNW 02:34:42 10° NE
STARLINK-73 3.7 02:30:38 29° SSW 02:32:07 48° SE 02:35:38 10° ENE
STARLINK-1019 4.5 02:30:59 23° S 02:32:58 38° SE 02:36:49 10° ENE
STARLINK-38 3.7 02:32:12 28° SSW 02:33:45 50° SE 02:37:16 10° ENE
STARLINK-65 3.6 02:33:46 28° SSW 02:35:23 51° SE 02:38:56 10° ENE
STARLINK-1305 4.1 02:32:41 18° WSW 02:35:33 56° NNW 02:39:39 10° NE
STARLINK-68 3.5 02:34:23 28° SSW 02:36:04 56° SE 02:39:39 10° ENE
STARLINK-1306 4.2 02:33:14 17° WSW 02:36:15 54° NNW 02:40:22 10° NE
STARLINK-53 3.5 02:35:24 28° SSW 02:37:05 56° SE 02:40:39 10° ENE
STARLINK-1012 4.3 02:35:47 22° SSW 02:37:56 41° SE 02:41:51 10° ENE
Cosmos 1980 Rocket 4.1 02:34:09 10° W 02:38:04 19° NW 02:42:01 10° N
STARLINK-50 3.7 02:37:26 25° SSW 02:39:21 54° SE 02:43:05 10° ENE
STARLINK-1262 4.2 02:37:30 16° WSW 02:40:35 53° NNW 02:44:40 10° NE
CZ-4B R/B 4.1 02:35:59 10° N 02:40:59 46° WNW 02:44:31 19° SW
Cosmos 2333 Rocket 3.7 02:38:31 10° SSE 02:43:24 31° ESE 02:48:19 10° NE
STARLINK-71 3.7 02:41:45 23° SW 02:44:05 63° SE 02:48:04 10° ENE
STARLINK-1300 4.3 02:42:17 15° W 02:45:34 49° NNW 02:49:37 10° NE
Meteor 1-28 Rocket 3.8 02:42:01 10° SSE 02:45:41 56° ENE 02:49:21 10° N
Cosmos 2219 Rocket 3.7 02:42:41 10° SSE 02:47:31 31° ESE 02:52:21 10° NE
STARLINK-1026 4.1 02:45:20 21° SSW 02:47:49 49° SE 02:51:51 10° ENE
STARLINK-29 2.8 02:45:22 10° WNW 02:48:33 71° SW 02:51:43 10° SE
Cosmos 2322 4.4 02:43:31 11° S 02:48:46 49° ESE 02:54:16 10° NE
STARLINK-1295 4.4 02:47:03 13° W 02:50:33 46° NNW 02:54:34 10° NE
ADEOS II 2.2 02:46:06 10° N 02:51:20 67° WNW 02:55:35 16° SSW
STARLINK-1013 4.0 02:50:08 20° SSW 02:52:49 54° SE 02:56:52 10° ENE
SL-4 R/B 2.6 02:49:00 10° WNW 02:53:32 42° SW 02:57:51 10° SSE
IRS-1D 4.0 02:49:00 10° N 02:54:04 50° WNW 02:58:00 16° SW
Cosmos 2263 Rocket 3.3 02:50:18 10° NW 02:54:40 24° WSW 02:57:35 16° SW
IDEFIX/ARIANE 42P 3.6 02:49:48 10° NNE 02:54:50 44° E 02:59:49 10° S
ERS-2 2.6 02:51:42 10° SSE 02:55:19 63° ENE 02:58:57 10° N
Cosmos 1606 3.8 02:51:47 10° N 02:55:25 43° ENE 02:59:02 10° SSE
STARLINK-25 3.1 02:53:37 21° SW 02:55:48 79° SE 02:59:16 10° ENE
STARLINK-1009 3.8 02:54:54 18° SW 02:57:46 59° SE 03:01:51 10° ENE
ATLAS 5 CENTAUR R/B 4.0 02:56:11 10° SE 02:57:51 12° ESE 02:59:33 10° E
Cosmos 2341 Rocket 4.1 02:52:36 14° SSW 02:58:06 64° W 03:04:24 10° N
BREEZE-M R/B 3.6 02:55:17 10° WNW 02:58:41 38° NNE 03:01:05 10° E
Cosmos 1892 3.8 02:56:52 18° SW 02:58:58 29° WNW 03:02:19 10° NNW
ARIANE 5 R/B 2.5 02:55:30 10° NNE 03:00:32 89° WNW 03:05:22 11° SSW
STARLINK-1015 3.8 02:59:41 17° SW 03:02:44 65° SE 03:06:51 10° ENE
STARLINK-1320 4.1 02:59:50 10° NW 03:02:51 46° NNE 03:05:53 10° ESE
STARLINK-1322 4.0 03:00:11 10° NW 03:03:13 46° NNE 03:06:14 10° ESE
STARLINK-1324 4.0 03:00:30 10° NW 03:03:32 46° NNE 03:06:33 10° ESE
STARLINK-1294 4.0 03:00:47 10° NW 03:03:51 47° NNE 03:06:54 10° ESE
STARLINK-1261 4.0 03:01:11 10° NW 03:04:13 47° NNE 03:07:15 10° ESE
STARLINK-1325 4.0 03:01:32 10° NW 03:04:34 47° NNE 03:07:36 10° ESE
STARLINK-1333 4.0 03:01:54 10° NW 03:04:56 48° NNE 03:07:58 10° ESE
CZ-2C R/B 3.8 03:01:26 10° NNE 03:05:03 42° E 03:08:42 10° S
STARLINK-1334 4.0 03:02:11 10° NW 03:05:13 48° NNE 03:08:15 10° ESE
STARLINK-1326 4.0 03:02:30 10° NW 03:05:33 48° NNE 03:08:34 10° ESE
CZ-2D R/B 3.7 03:01:16 10° NNE 03:05:33 73° ESE 03:09:54 10° S
STARLINK-1323 3.9 03:02:54 10° NW 03:05:56 48° NNE 03:08:58 10° ESE
STARLINK-1349 3.9 03:03:11 10° NW 03:06:14 49° NNE 03:09:16 10° ESE
STARLINK-1336 3.9 03:03:30 10° NW 03:06:34 49° NNE 03:09:36 10° ESE
STARLINK-1331 3.9 03:03:53 10° NW 03:06:57 49° NNE 03:09:59 10° ESE
Cosmos 1959 Rocket 4.5 03:00:52 10° S 03:07:01 88° W 03:13:10 10° N
USA 229 DEB 4.5 03:00:38 10° NW 03:07:06 34° WSW 03:13:48 10° S
STARLINK-24 3.5 03:03:58 16° SW 03:07:10 86° NNW 03:11:12 10° NE
USA 229 4.5 03:00:44 10° NW 03:07:13 35° WSW 03:13:56 10° S
STARLINK-1344 3.9 03:04:11 10° NW 03:07:15 50° NNE 03:10:17 10° ESE
IRS-1C 4.3 03:02:13 10° N 03:07:29 60° WNW 03:12:22 12° SSW
STARLINK-1343 3.9 03:04:34 10° NW 03:07:37 50° NNE 03:10:40 10° ESE
STARLINK-1016 3.7 03:04:27 16° SW 03:07:42 71° SE 03:11:50 10° ENE
STARLINK-1346 3.9 03:04:50 10° NW 03:07:56 51° NNE 03:11:00 10° ESE
STARLINK-1328 3.8 03:05:17 10° NW 03:08:21 51° NNE 03:11:24 10° ESE
STARLINK-1354 3.8 03:05:35 10° NW 03:08:38 51° NNE 03:11:41 10° ESE
STARLINK-1347 3.8 03:05:51 10° NW 03:08:55 51° NNE 03:11:58 10° ESE
STARLINK-1357 3.8 03:06:17 10° NW 03:09:22 52° NNE 03:12:24 10° ESE
Cosmos 1844 3.9 03:03:38 10° NNW 03:09:28 79° ENE 03:15:15 10° SSE
STARLINK-1335 3.8 03:06:35 10° NW 03:09:38 52° NNE 03:12:41 10° ESE
STARLINK-1327 3.8 03:06:56 10° NW 03:09:59 52° NNE 03:13:03 10° ESE
STARLINK-1340 3.8 03:07:13 10° NW 03:10:17 52° NNE 03:13:20 10° ESE
STARLINK-1356 3.7 03:07:36 10° NW 03:10:40 53° NNE 03:13:43 10° ESE
STARLINK-1345 3.7 03:07:55 10° NW 03:10:59 53° NNE 03:14:02 10° ESE
STARLINK-1355 3.7 03:08:16 10° NW 03:11:20 54° NNE 03:14:24 10° ESE
STARLINK-1321 3.7 03:08:37 10° NW 03:11:41 54° NNE 03:14:45 10° ESE
STARLINK-1358 3.7 03:09:00 10° NW 03:12:05 54° NNE 03:15:08 10° ESE
STARLINK-1332 3.7 03:09:17 10° NW 03:12:22 55° NNE 03:15:26 10° ESE
STARLINK-1008 3.6 03:09:15 15° SW 03:12:41 77° SE 03:16:50 10° ENE
STARLINK-1348 3.7 03:09:38 10° NW 03:12:42 55° NNE 03:15:47 10° ESE
STARLINK-1330 3.6 03:09:57 10° NW 03:13:02 55° NNE 03:16:05 10° ESE
STARLINK-1363 3.6 03:10:17 10° NW 03:13:22 56° NNE 03:16:26 10° ESE
STARLINK-1337 3.6 03:10:39 10° NW 03:13:44 56° NNE 03:16:49 10° ESE
STARLINK-1342 3.6 03:10:58 10° NW 03:14:03 57° NNE 03:17:08 10° ESE
STARLINK-1364 3.6 03:11:18 10° NW 03:14:24 57° NNE 03:17:28 10° ESE
STARLINK-1376 3.6 03:11:38 10° NW 03:14:44 57° NNE 03:17:48 10° ESE
STARLINK-1360 3.6 03:11:58 10° NW 03:15:05 58° NNE 03:18:10 10° ESE
STARLINK-1361 3.5 03:12:20 10° NW 03:15:25 58° NNE 03:18:30 10° ESE
STARLINK-1367 3.5 03:12:35 10° NW 03:15:43 59° NNE 03:18:50 10° ESE
STARLINK-81 3.3 03:12:44 13° WSW 03:15:51 77° NNW 03:19:29 10° NE
STARLINK-1366 3.5 03:12:59 10° NW 03:16:04 59° NNE 03:19:08 10° ESE
Cosmos 2322 Rocket 3.3 03:11:31 11° WSW 03:16:17 32° NW 03:21:18 10° N
NOSS 3-1 (A) 4.5 03:09:09 10° NW 03:16:27 44° WSW 03:24:35 10° S
CZ-4B R/B 4.3 03:15:02 10° ESE 03:17:13 18° ENE 03:19:28 10° NNE
STARLINK-54 3.4 03:14:25 13° WSW 03:17:36 68° NNW 03:21:13 10° NE
STARLINK-1014 3.6 03:14:03 13° SW 03:17:39 84° SE 03:21:47 10° ENE
Meteor 2-3 Rocket 4.4 03:12:16 10° S 03:17:42 56° E 03:23:10 10° NNE
SL-8 Rocket 4.2 03:11:37 10° SSW 03:17:49 61° W 03:24:01 10° N
Cosmos 1151 Rocket 3.2 03:13:31 10° N 03:17:57 79° E 03:22:19 10° SSE
STARLINK-77 3.4 03:15:52 12° WSW 03:19:06 72° NNW 03:22:44 10° NE
Cosmos 2344 4.5 03:12:18 10° S 03:19:19 42° ESE 03:26:28 10° NE
Cosmos 2151 3.4 03:17:06 11° SSW 03:21:01 46° WNW 03:25:11 10° N
Resurs 1-4 Rocket 4.0 03:18:31 10° NNW 03:21:38 16° WNW 03:24:45 10° W
Lacrosse 5 rocket 2.7 03:18:10 10° S 03:21:40 28° SE 03:25:02 10° ENE
Cosmos 2218 Rocket 4.1 03:15:54 10° SSW 03:22:13 68° W 03:28:38 10° N
H-2A R/B 2.1 03:18:08 10° S 03:22:33 79° WSW 03:27:05 10° NNW
STARLINK-1025 3.6 03:18:49 12° SW 03:22:38 90° N 03:26:48 10° NE
Cosmos 1766 Rocket 3.6 03:19:24 10° SSW 03:23:42 67° W 03:28:02 10° N
COBE Rocket 4.3 03:18:50 10° S 03:23:43 49° W 03:28:44 10° NNW
STARLINK-52 3.5 03:20:49 10° WNW 03:23:48 36° SW 03:26:46 10° SSE
STARLINK-79 3.5 03:20:34 11° WSW 03:24:00 66° NNW 03:27:37 10° NE
STARLINK-78 3.5 03:22:08 11° WSW 03:25:39 64° NNW 03:29:15 10° NE
STARLINK-1338 4.2 03:22:37 10° NW 03:26:34 59° NNE 03:30:31 10° ESE
Cosmos 1408 4.1 03:23:51 11° SW 03:26:35 22° WNW 03:29:33 10° NNW
Okean 3 Rocket 3.9 03:22:21 10° SSW 03:26:47 53° WNW 03:31:16 10° N
STARLINK-57 3.6 03:23:44 10° WSW 03:27:17 59° NNW 03:30:52 10° NE
STARLINK-1017 3.6 03:23:34 11° WSW 03:27:35 84° NW 03:31:45 10° NE
STARLINK-49 3.6 03:25:15 10° WSW 03:28:49 60° NNW 03:32:24 10° NE
Cosmos 1515 Rocket 4.2 03:25:31 10° N 03:29:51 60° E 03:34:08 10° SSE
STARLINK-27 3.7 03:26:58 10° WSW 03:30:32 58° NNW 03:34:08 10° NE
STARLINK-74 3.7 03:28:35 10° WSW 03:32:10 57° NNW 03:35:45 10° NE
Spot 4 Rocket 4.2 03:27:10 10° N 03:32:15 65° WNW 03:37:19 10° SSW
STARLINK-1023 3.7 03:28:25 10° WSW 03:32:33 78° NNW 03:36:43 10° NE
Cosmos 1825 3.3 03:30:19 10° SW 03:33:36 28° WNW 03:36:54 10° NNW
STARLINK-39 3.7 03:30:14 10° WSW 03:33:48 55° NNW 03:37:23 10° NE
STARLINK-1371 4.0 03:30:46 10° NW 03:34:42 66° NNE 03:38:37 10° ESE
STARLINK-31 3.8 03:31:55 10° WSW 03:35:28 53° NNW 03:39:02 10° NE
STARLINK-69 3.9 03:33:33 10° WSW 03:37:01 48° NNW 03:40:32 10° NE
STARLINK-1007 3.8 03:33:27 10° WSW 03:37:35 72° NNW 03:41:45 10° NE
STARLINK-21 3.9 03:35:14 10° WSW 03:38:45 50° NNW 03:42:18 10° NE
STARLINK-1341 3.9 03:35:09 10° NW 03:39:06 71° NNE 03:43:02 10° ESE
SL-08 R/B 4.3 03:35:14 10° SSW 03:39:09 27° W 03:43:04 10° NW
STARLINK-45 4.1 03:37:04 10° WSW 03:40:34 45° NNW 03:44:05 10° NE
STARLINK-1048 3.9 03:38:26 10° WSW 03:42:33 67° NNW 03:46:42 10° NE
STARLINK-76 4.0 03:40:10 10° WSW 03:43:40 46° NNW 03:47:11 10° NE
STARLINK-1374 3.8 03:39:46 10° NW 03:43:47 76° NE 03:47:47 10° ESE
Iridium 4 Rocket 4.5 03:39:07 10° SSE 03:44:01 53° E 03:49:23 10° N
Cosmos 1346 Rocket 4.2 03:40:20 10° SSE 03:44:03 39° E 03:47:47 10° NNE
Cosmos 1818 4.1 03:38:52 10° SSW 03:44:09 58° ESE 03:49:31 10° NE
Cosmos 2237 Rocket 3.8 03:39:20 10° SSE 03:44:17 32° ESE 03:49:16 10° NE
STARLINK-70 4.1 03:40:47 10° WSW 03:44:19 45° NNW 03:47:51 10° NE
STARLINK-23 4.1 03:41:49 10° WSW 03:45:19 45° NNW 03:48:50 10° NE
Cosmos 1538 Rocket 4.4 03:40:28 10° SW 03:45:41 53° WNW 03:50:59 10° NNE
